Location: Assche-ter-Heiden
(50.9174°N, 4.1574°E)
Time: 23:58:16
(UTC+00:00)

CZ-4 R/B - Pass Details

Date: 20 January 2020
Orbit: 533 x 597 km, 97.7° (Epoch: 28 February)

Event Time Altitude Azimuth Distance (km) Brightness Sun altitude
Rises 06:32:47 0° 19° (NNE) 2,853 5.0 -9.7°
Reaches altitude 10° 06:35:05 10° 27° (NNE) 1,948 4.2 -9.4°
Maximum altitude 06:39:05 39° 97° (E) 899 3.1 -8.8°
Drops below altitude 10° 06:43:02 10° 168° (SSE) 1,929 4.6 -8.2°
Sets 06:45:17 0° 176° (S) 2,821 5.3 -7.9°
